Dewpoint
58 57 56 52 45 46 42 43 44 43 45 46 46 44 44 45 44 39 61 63 65 68 70 71 72 71 70 70 71 71 71 69 68 66 64 63 62 61 61 61 61 61 61 61 61 60 60 60 60
56 56 52 48 41 36 37 42 44 44 45 51 53 52 46 44 57 60 62 65 66 69 70 71 72 71 72 71 71 71 69 67 65 64 63 61 62 62 61 60 60 60 60 60 60 59 59 58 58
55 56 48 44 40 31 33 41 44 46 49 50 50 56 54 52 60 61 63 66 68 69 70 70 71 72 72 72 71 69 67 65 64 62 61 62 61 60 60 60 60 60 60 59 58 58 57 57 59
53 51 47 39 38 39 39 42 42 44 48 53 55 53 56 59 59 62 65 67 68 69 69 71 71 73 72 72 70 68 66 64 63 62 61 61 60 60 60 60 60 59 59 57 57 57 58 59 59
52 46 38 36 36 37 33 34 36 35 46 51 57 52 54 59 63 65 65 66 67 68 69 71 72 72 72 71 68 67 65 63 62 62 61 60 60 60 60 60 59 58 57 57 57 58 58 58 58
45 42 35 32 33 35 32 31 33 39 42 48 54 55 54 60 64 64 65 66 66 67 69 71 71 71 71 69 68 66 64 62 62 61 60 60 60 60 59 58 57 57 57 57 56 57 57 57 58
41 39 33 32 33 35 31 35 34 36 41 43 57 53 58 60 64 65 65 65 66 68 69 70 69 69 68 68 67 66 64 62 60 60 60 59 59 58 57 57 57 57 56 56 55 55 56 57 58
44 40 33 34 34 34 35 37 38 39 42 54 57 51 54 60 63 64 65 64 66 68 68 68 67 66 65 64 66 65 64 63 61 60 60 60 60 59 57 57 57 56 56 55 55 57 57 58 57
44 37 33 34 35 34 34 38 38 39 48 49 55 56 60 61 64 64 63 63 65 66 66 65 63 62 62 62 63 63 62 61 61 60 60 56 53 52 52 57 58 57 55 55 55 56 58 58 57
42 35 35 37 37 36 37 38 37 37 37 46 52 58 62 62 63 62 61 60 63 64 64 63 62 60 60 60 57 56 57 56 55 54 48 47 48 49 51 56 58 57 57 56 56 55 55 53 50
39 37 38 38 38 39 38 37 37 36 37 44 48 51 60 60 61 61 60 61 62 63 63 61 59 58 57 57 54 53 52 51 51 50 45 45 48 47 47 46 46 46 48 45 46 46 46 46 47
38 40 38 39 39 38 37 37 35 36 36 41 43 50 60 59 61 61 60 60 62 62 60 59 57 55 53 52 50 49 47 46 46 45 43 44 46 45 45 45 45 45 45 45 45 45 45 46 46
39 39 40 40 40 40 40 38 35 34 36 40 54 57 59 60 61 62 61 61 62 61 59 58 55 52 50 48 47 46 45 44 43 43 43 44 44 44 45 44 44 44 44 45 46 46 46 45 46
39 40 40 40 39 39 37 36 36 34 36 46 55 54 57 58 61 62 62 62 61 60 58 56 54 50 48 46 46 44 45 43 43 43 43 44 44 44 44 44 44 44 44 45 46 46 46 46 46
42 38 37 36 37 35 38 33 32 34 34 44 47 54 56 58 60 61 62 62 61 60 58 56 53 49 46 46 46 44 44 43 43 43 43 44 45 45 45 45 44 44 44 44 45 46 47 46 46
36 33 30 32 33 34 34 31 33 34 33 33 38 51 55 57 58 61 62 62 62 60 58 56 54 49 46 46 45 44 44 44 44 44 44 45 45 45 45 45 45 44 44 44 45 45 45 46 46
30 27 28 31 34 33 32 31 33 34 33 35 39 40 53 56 58 60 62 62 62 59 59 56 52 49 47 46 45 44 45 44 44 45 45 45 46 45 45 45 45 44 44 44 44 43 43 44 46
26 28 30 30 33 34 33 32 33 34 33 33 35 36 49 55 57 59 59 62 60 59 58 57 52 49 49 49 45 45 45 44 44 44 45 46 46 46 45 45 45 45 44 44 44 43 43 43 45
32 31 31 32 34 33 32 31 32 33 33 32 35 35 46 54 56 58 58 59 59 59 58 56 52 49 50 47 44 44 44 44 44 45 45 45 45 46 45 45 45 45 43 43 43 43 42 42 43
33 31 30 32 33 32 31 30 31 32 33 33 33 35 44 52 55 57 59 59 58 57 57 57 53 50 49 47 45 44 44 44 44 46 45 45 45 46 45 45 45 45 44 44 44 43 43 43 42
32 30 29 31 32 31 30 27 27 29 32 32 34 35 43 51 53 55 58 57 57 56 57 57 56 50 49 48 47 48 48 46 45 45 45 45 46 46 46 45 45 45 45 45 44 44 43 42 42
30 32 32 32 30 23 28 24 26 28 29 30 30 33 39 50 54 55 57 56 55 55 57 57 56 53 49 48 48 45 42 43 44 44 45 46 46 46 46 46 45 45 46 45 45 44 43 43 42
31 32 29 29 26 27 26 21 25 28 28 28 29 30 35 47 53 54 55 55 54 55 56 57 57 55 51 49 48 47 43 43 46 46 44 45 45 46 46 46 45 45 46 46 46 45 44 43 43
33 31 26 27 29 24 21 23 23 23 24 25 26 28 30 43 51 54 54 52 53 56 57 55 57 54 52 50 49 48 44 45 47 45 44 45 45 46 46 46 45 45 46 45 46 45 44 44 44
32 28 18 15 22 18 17 22 25 26 27 28 28 29 30 37 48 53 55 54 54 58 58 57 55 53 52 51 51 50 51 47 45 45 44 44 45 45 46 46 45 45 45 45 46 45 45 44 44
30 29 19 11 11 17 25 22 25 28 29 30 29 31 31 31 45 51 55 56 56 57 57 56 55 54 52 52 52 50 49 47 46 46 45 45 44 44 45 45 45 44 45 45 45 45 45 44 44
29 29 27 23 20 20 21 23 24 26 27 28 26 26 27 29 34 48 53 56 56 56 57 56 56 55 54 53 53 53 52 49 47 46 46 46 45 45 45 45 44 44 44 45 45 44 44 44 44
30 30 26 24 18 15 18 19 22 21 23 25 26 26 28 29 31 36 50 54 56 56 56 56 56 55 55 55 55 54 52 49 48 47 46 46 46 45 45 44 44 43 44 44 44 43 43 44 43
31 27 26 26 23 17 17 18 26 25 25 25 26 27 28 28 30 33 40 51 55 57 57 56 55 55 55 56 55 54 52 49 48 47 46 46 46 45 44 44 43 42 42 43 43 42 43 43 43
31 29 27 22 19 23 17 21 27 26 26 27 27 27 29 28 30 31 36 44 51 55 56 56 56 55 55 56 55 54 52 50 48 47 47 47 46 45 44 43 42 41 42 42 42 41 42 42 42
Lifted_Index
8 8 8 8 6 5 5 5 3 2 1 -0 -1 -0 1 1 1 1 1 1 1 -1 -2 -3 -3 -2 -2 -1 -1 -1 -1 0 2 3 4 5 6 6 6 6 6 6 6 6 7 7 7 7 7
8 8 8 8 7 5 4 3 2 1 0 -0 -1 -1 0 1 1 1 1 1 -0 -1 -2 -3 -3 -3 -2 -2 -2 -1 -0 1 2 4 5 5 6 6 6 6 6 6 7 7 7 8 8 8 8
8 8 8 7 5 4 2 1 0 -0 -1 -1 -2 -2 -1 0 0 -0 -0 -0 -1 -2 -2 -3 -3 -3 -3 -2 -2 -0 1 2 4 5 5 6 6 6 7 7 7 7 7 8 8 8 8 8 8
7 7 6 5 3 2 1 -0 -1 -1 -1 -1 -2 -3 -2 -1 -1 -1 -1 -1 -1 -2 -2 -3 -3 -3 -3 -2 -1 0 2 3 4 5 6 6 6 7 7 7 7 8 8 8 8 8 8 8 8
7 6 5 4 2 1 1 0 -0 -0 -1 -1 -3 -3 -3 -2 -2 -2 -1 -1 -1 -2 -2 -3 -3 -3 -3 -2 -0 1 3 4 5 5 6 6 7 7 7 8 8 8 8 9 9 8 8 8 8
6 5 4 3 3 2 2 1 0 0 0 -1 -2 -3 -3 -3 -3 -2 -2 -1 -1 -1 -2 -3 -3 -3 -2 -1 1 2 3 5 5 6 6 7 7 7 8 8 8 9 9 9 9 9 8 8 8
6 5 4 3 3 3 2 2 1 1 1 -1 -2 -2 -2 -3 -3 -3 -2 -2 -1 -2 -2 -2 -2 -2 -1 0 1 3 4 5 6 6 7 7 8 8 8 9 9 9 9 9 9 9 8 8 8
6 5 4 3 3 3 3 2 1 1 1 -1 -2 -2 -2 -2 -3 -3 -2 -1 -2 -2 -2 -2 -1 -1 0 1 2 3 4 5 6 7 7 8 9 9 9 9 9 9 9 9 9 9 8 8 9
6 5 4 3 3 3 3 2 1 1 1 -0 -1 -2 -2 -2 -3 -2 -1 -1 -1 -1 -1 -1 -1 -0 1 2 3 5 6 6 7 8 9 10 10 11 10 10 9 9 9 9 9 9 9 9 10
6 5 4 3 3 3 3 2 1 2 2 1 -0 -1 -2 -2 -2 -2 -2 -1 -1 -1 -1 -1 -1 0 1 3 5 6 7 8 9 10 11 12 12 12 12 11 10 10 10 10 10 11 11 11 11
6 5 4 3 3 3 2 2 2 2 3 2 1 -0 -1 -2 -2 -2 -2 -2 -1 -1 -1 -1 -1 0 1 3 6 8 9 10 11 12 13 13 13 13 12 12 12 12 12 12 12 12 12 12 12
6 5 4 3 2 2 2 2 2 3 4 3 2 0 -1 -2 -2 -1 -1 -1 -1 -1 -1 -1 -1 0 2 4 7 9 11 11 12 13 13 13 13 13 13 13 13 13 13 12 12 12 12 12 12
6 5 4 3 3 3 3 3 3 3 4 3 1 -1 -2 -2 -2 -1 -1 -1 -1 -1 -1 -1 -1 0 2 4 7 10 12 12 13 13 13 13 13 13 13 13 13 13 13 12 12 12 12 12 12
6 5 5 4 3 3 3 3 3 4 4 3 1 -1 -2 -2 -3 -2 -1 -1 -1 -1 -1 -1 -0 0 2 4 7 10 12 12 13 13 13 13 13 13 14 14 14 13 13 12 12 11 11 12 12
6 6 5 5 4 3 3 3 4 4 4 4 3 1 -1 -2 -3 -3 -2 -1 -1 -1 -1 -1 -0 0 1 3 7 10 12 12 12 13 13 13 13 13 14 14 14 14 13 12 12 11 11 12 12
6 6 5 5 4 3 3 3 3 4 4 5 4 2 -0 -2 -3 -3 -2 -2 -2 -2 -1 -1 -0 -0 1 3 6 9 12 12 12 13 13 13 13 13 14 14 14 14 14 13 12 11 11 12 12
5 5 5 5 5 4 3 3 3 4 4 5 5 3 1 -1 -2 -2 -3 -3 -2 -2 -2 -1 -1 -0 0 2 5 9 11 12 13 13 13 13 13 13 14 14 14 14 14 14 13 12 12 12 12
4 5 5 5 5 5 4 4 4 4 4 4 5 5 3 0 -1 -2 -2 -2 -2 -2 -2 -1 -1 -0 -0 1 4 8 10 12 13 13 13 13 13 13 13 14 14 14 14 14 14 13 13 12 12
5 5 5 5 6 5 5 4 4 4 4 5 5 5 4 1 -1 -1 -2 -1 -1 -1 -1 -1 -1 -1 -1 0 2 5 8 11 12 13 13 13 13 13 13 14 14 14 14 14 14 14 14 13 12
6 5 5 5 6 6 5 4 4 4 5 5 5 5 4 1 -1 -1 -1 -0 -0 -0 -0 -0 -0 -1 -1 -0 1 4 6 9 11 11 12 12 12 13 13 13 14 14 14 14 14 14 14 13 13
5 5 5 5 5 5 5 4 3 4 5 4 4 5 4 2 -0 -1 -1 -0 0 1 2 2 1 -0 -1 -0 1 2 4 6 7 8 9 10 11 12 12 13 13 13 14 14 14 14 14 14 13
5 6 6 6 5 4 4 3 3 4 4 4 4 4 4 2 1 -0 -1 -0 0 1 2 3 3 1 -0 -0 0 1 2 3 3 4 5 7 8 9 10 12 12 13 13 13 14 14 14 14 14
5 6 6 6 5 4 3 2 2 3 4 4 4 4 4 3 2 1 -0 -0 0 1 2 4 4 2 0 -0 -0 0 1 1 1 2 4 5 6 7 8 9 11 12 13 13 13 14 14 14 14
6 6 5 5 4 3 3 3 3 3 4 4 3 3 4 4 3 1 0 -0 0 1 2 3 4 2 1 -0 -0 -0 0 1 1 2 3 4 4 4 5 7 8 10 12 13 13 13 13 13 13
6 5 3 2 2 2 3 3 3 4 4 4 3 3 4 4 3 2 1 0 1 1 2 3 3 2 1 -0 -1 -1 -0 -0 0 1 2 3 3 3 3 4 6 8 11 12 13 13 13 13 13
5 5 3 2 1 2 3 3 3 4 4 4 3 3 3 3 4 2 1 0 1 1 2 2 2 1 0 -1 -1 -1 -1 -1 -1 -0 1 2 3 3 3 3 4 6 10 12 12 13 13 13 12
6 5 4 3 2 2 2 3 3 4 4 4 4 3 3 3 3 3 1 0 0 1 1 1 1 0 -1 -1 -1 -0 -0 -0 -1 -1 -0 1 2 2 3 3 3 5 9 11 12 12 12 12 12
6 6 5 4 3 1 2 2 3 4 4 4 4 4 3 3 3 3 2 1 -0 0 1 1 1 1 -0 -0 0 1 1 1 -0 -1 -1 -0 1 1 2 3 3 4 7 10 11 12 12 12 12
6 6 5 4 3 2 2 3 3 4 4 4 4 4 4 4 4 4 3 2 0 -1 0 1 1 1 1 1 1 2 2 1 0 -1 -1 -1 0 1 1 2 2 3 6 9 11 12 12 13 13
6 6 6 4 3 3 3 3 4 4 4 4 4 4 4 4 4 4 4 3 1 -1 -1 0 1 2 2 1 1 2 2 2 0 -1 -1 -0 0 1 1 1 2 2 5 8 10 11 12 13 13